DW2047 Weather Reports


time (UTC)temp
C
wind
direction
speed
KPH
gust
KPH
rain 1hr
cm
rain 24hr
cm
rain mn
cm
humidity
%
barometer
mb
20260505100543 21 135 6.4 0.0 0.00 0.00 0.00 88 1006.9
20260505100035 21 153 6.4 0.0 0.00 0.00 0.00 88 1007.0
20260505095511 21 145 6.4 0.0 0.00 0.00 0.00 88 1007.0
20260505095050 21 142 6.4 0.0 0.00 0.00 0.00 88 1007.1
20260505094555 21 155 6.4 0.0 0.00 0.00 0.00 88 1007.0
20260505094034 21 141 6.4 0.0 0.00 0.00 0.00 88 1007.1
20260505093504 21 148 6.4 0.0 0.00 0.00 0.00 88 1007.1
20260505093006 21 173 6.4 0.0 0.00 0.00 0.00 88 1007.1
20260505092548 21 148 6.4 0.0 0.00 0.00 0.00 87 1007.1
20260505092018 21 150 6.4 0.0 0.00 0.00 0.00 87 1007.2
20260505091526 21 143 6.4 0.0 0.00 0.00 0.00 87 1007.2
20260505091102 21 146 8.0 0.0 0.00 0.00 0.00 87 1007.3
20260505090533 21 140 8.0 0.0 0.00 0.00 0.00 87 1007.5
20260505090045 21 167 8.0 0.0 0.00 0.00 0.00 87 1007.5
20260505085515 21 142 6.4 0.0 0.00 0.00 0.00 87 1007.3
20260505085052 21 160 6.4 0.0 0.00 0.00 0.00 87 1007.5
20260505084556 21 133 6.4 0.0 0.00 0.00 0.00 87 1007.4
20260505084032 21 121 6.4 0.0 0.00 0.00 0.00 87 1007.4
20260505083504 21 159 6.4 0.0 0.00 0.00 0.00 87 1007.4
20260505083007 21 135 6.4 0.0 0.00 0.00 0.00 87 1007.4
20260505082545 21 134 8.0 0.0 0.00 0.00 0.00 86 1007.4
20260505082018 21 137 8.0 0.0 0.00 0.00 0.00 86 1007.6
20260505081519 21 141 8.0 0.0 0.00 0.00 0.00 86 1007.6
20260505081102 21 121 8.0 0.0 0.00 0.00 0.00 86 1007.8
20260505080533 21 163 8.0 0.0 0.00 0.00 0.00 86 1007.7
20260505080038 21 130 8.0 0.0 0.00 0.00 0.00 86 1007.8
20260505075602 21 131 8.0 0.0 0.00 0.00 0.00 86 1007.8
20260505075035 21 126 6.4 0.0 0.00 0.00 0.00 86 1007.8
20260505074541 21 153 8.0 0.0 0.00 0.00 0.00 86 1007.8
20260505074014 21 155 9.7 0.0 0.00 0.00 0.00 86 1007.9
20260505073549 21 149 8.0 0.0 0.00 0.00 0.00 86 1007.9
20260505073110 21 167 8.0 0.0 0.00 0.00 0.00 86 1007.9
20260505072527 21 275 8.0 0.0 0.00 0.00 0.00 86 1008.0
20260505072106 21 186 9.7 0.0 0.00 0.00 0.00 86 1008.0
20260505071516 21 132 9.7 0.0 0.00 0.00 0.00 86 1008.2
20260505071049 21 184 9.7 0.0 0.00 0.00 0.00 86 1008.2
20260505070524 21 170 8.0 0.0 0.00 0.00 0.00 86 1008.3
20260505070029 21 139 9.7 0.0 0.00 0.00 0.00 86 1008.4
20260505065505 21 151 9.7 0.0 0.00 0.00 0.00 86 1008.4
20260505065042 21 168 9.7 0.0 0.00 0.00 0.00 85 1008.6
20260505064544 21 123 9.7 0.0 0.00 0.00 0.00 85 1008.5
20260505064021 21 160 9.7 0.0 0.00 0.00 0.00 85 1008.6
20260505063600 21 129 9.7 0.0 0.00 0.00 0.00 85 1008.5
20260505063048 21 162 8.0 0.0 0.00 0.00 0.00 85 1008.5
20260505062521 21 158 9.7 0.0 0.00 0.00 0.00 85 1008.6
20260505062059 21 200 9.7 0.0 0.00 0.00 0.00 85 1008.7
20260505061553 21 123 9.7 0.0 0.00 0.00 0.00 85 1008.7
20260505061023 21 157 8.0 0.0 0.00 0.00 0.00 85 1008.7
20260505060605 21 142 8.0 0.0 0.00 0.00 0.00 85 1008.8
20260505060003 22 146 11.3 0.0 0.00 0.00 0.00 85 1008.8
20260505055541 22 183 12.9 0.0 0.00 0.00 0.00 85 1008.6
20260505055014 22 157 12.9 0.0 0.00 0.00 0.00 85 1008.8
20260505054527 22 213 11.3 0.0 0.00 0.00 0.00 85 1008.7
20260505054057 22 134 11.3 0.0 0.00 0.00 0.00 84 1008.8
20260505053534 22 143 11.3 0.0 0.00 0.00 0.00 84 1008.7
20260505053046 22 268 11.3 0.0 0.00 0.00 0.00 84 1008.6
20260505052511 22 141 11.3 0.0 0.00 0.00 0.00 84 1008.6
20260505052050 22 144 11.3 0.0 0.00 0.00 0.00 84 1008.6
20260505051553 22 131 11.3 0.0 0.00 0.00 0.00 84 1008.6
20260505051028 22 196 11.3 0.0 0.00 0.00 0.00 84 1008.7
20260505050601 22 148 11.3 0.0 0.00 0.00 0.00 84 1008.7
20260505041556 22 145 6.4 0.0 0.00 0.00 0.00 82 1008.8
20260505041025 22 142 6.4 0.0 0.00 0.00 0.00 81 1008.8
20260505040603 22 155 8.0 0.0 0.00 0.00 0.00 81 1008.8
20260505040048 22 189 8.0 0.0 0.00 0.00 0.00 81 1008.8
20260505035520 23 169 6.4 0.0 0.00 0.00 0.00 80 1008.8
20260505035103 23 153 6.4 0.0 0.00 0.00 0.00 79 1008.8
20260505034551 23 151 6.4 0.0 0.00 0.00 0.00 79 1008.8
20260505034025 23 143 8.0 0.0 0.00 0.00 0.00 79 1008.8
20260505033603 23 130 8.0 0.0 0.00 0.00 0.00 79 1008.8
20260505033052 23 141 8.0 0.0 0.00 0.00 0.00 79 1008.8
20260505032529 23 143 8.0 0.0 0.00 0.00 0.00 79 1008.7
20260505032001 23 148 8.0 0.0 0.00 0.00 0.00 78 1008.6
20260505031517 23 139 8.0 0.0 0.00 0.00 0.00 77 1008.7
20260505031041 23 163 8.0 0.0 0.00 0.00 0.00 77 1008.7
20260505030514 23 142 8.0 0.0 0.00 0.00 0.00 77 1008.7
20260505030003 23 169 8.0 0.0 0.00 0.00 0.00 76 1008.6
20260505025542 23 140 8.0 0.0 0.00 0.00 0.00 75 1008.5
20260505025014 23 155 8.0 0.0 0.00 0.00 0.00 75 1008.6
20260505024530 23 143 8.0 0.0 0.00 0.00 0.00 74 1008.6
20260505024059 23 146 4.8 0.0 0.00 0.00 0.00 73 1008.6
20260505023529 23 151 4.8 0.0 0.00 0.00 0.00 72 1008.6
20260505023034 24 144 4.8 0.0 0.00 0.00 0.00 72 1008.5
20260505022503 24 165 4.8 0.0 0.00 0.00 0.00 72 1008.6
20260505022046 24 186 4.8 0.0 0.00 0.00 0.00 71 1008.5
20260505021549 24 165 4.8 0.0 0.00 0.00 0.00 71 1008.5
20260505021022 24 160 8.0 0.0 0.00 0.00 0.00 71 1008.4
20260505020558 24 156 8.0 0.0 0.00 0.00 0.00 70 1008.3
20260505020049 24 167 8.0 0.0 0.00 0.00 0.00 70 1008.2
20260505015525 24 159 6.4 0.0 0.00 0.00 0.00 70 1008.3
20260505015106 24 189 6.4 0.0 0.00 0.00 0.00 70 1008.3
20260505014601 24 147 4.8 0.0 0.00 0.00 0.00 69 1008.4
20260505014025 24 153 6.4 0.0 0.00 0.00 0.00 69 1008.4
20260505013606 24 150 6.4 0.0 0.00 0.00 0.00 68 1008.4
20260505013105 25 137 4.8 0.0 0.00 0.00 0.00 68 1008.5
20260505012525 25 140 4.8 0.0 0.00 0.00 0.00 67 1008.4
20260505012101 25 144 4.8 0.0 0.00 0.00 0.00 66 1008.4
20260505011548 25 200 6.4 0.0 0.00 0.00 0.00 66 1008.4
20260505011018 25 140 8.0 0.0 0.00 0.00 0.00 65 1008.3
20260505010604 25 138 8.0 0.0 0.00 0.00 0.00 65 1008.4
20260505010051 25 140 4.8 0.0 0.00 0.00 0.00 64 1008.4
20260505005524 25 189 6.4 0.0 0.00 0.00 0.00 64 1008.4
20260505005104 25 158 6.4 0.0 0.00 0.00 0.00 64 1008.4
20260505004555 26 142 8.0 0.0 0.00 0.00 0.00 64 1008.4
20260505004028 26 202 9.7 0.0 0.00 0.00 0.00 64 1008.4
20260505003608 26 190 8.0 0.0 0.00 0.00 0.00 64 1008.3
20260505003005 26 142 6.4 0.0 0.00 0.00 0.00 64 1008.4
20260505002543 26 130 8.0 0.0 0.00 0.00 0.00 64 1008.3
20260505002022 26 138 8.0 0.0 0.00 0.00 0.00 63 1008.3
20260505001519 26 145 8.0 0.0 0.00 0.00 0.00 63 1008.2
20260505001057 26 169 9.7 0.0 0.00 0.00 0.00 63 1008.3
20260505000532 26 142 12.9 0.0 0.00 0.00 0.00 62 1008.2
20260505000055 26 179 12.9 0.0 0.00 0.00 0.00 61 1008.2
20260504235506 27 144 9.7 0.0 0.00 0.00 0.00 61 1008.3
20260504235042 27 140 9.7 0.0 0.00 0.00 0.00 61 1008.3
20260504234531 27 139 9.7 0.0 0.00 0.00 0.00 61 1008.3
20260504234006 27 132 11.3 0.0 0.00 0.00 0.00 61 1008.3
20260504233543 27 148 11.3 0.0 0.00 0.00 0.00 61 1008.4
20260504233036 27 142 9.7 0.0 0.00 0.00 0.00 61 1008.5
20260504232514 27 149 11.3 0.0 0.00 0.00 0.00 60 1008.6
20260504232047 27 161 11.3 0.0 0.00 0.00 0.00 59 1008.6
20260504231536 27 168 8.0 0.0 0.00 0.00 0.00 59 1008.6
20260504231008 27 169 9.7 0.0 0.00 0.00 0.00 58 1008.6
20260504230548 27 157 9.7 0.0 0.00 0.00 0.00 59 1008.6
20260504225523 27 157 9.7 0.0 0.00 0.00 0.00 58 1008.7
20260504225101 28 142 9.7 0.0 0.00 0.00 0.00 58 1008.8
20260504224550 28 170 9.7 0.0 0.00 0.00 0.00 57 1008.7
20260504224022 28 234 11.3 0.0 0.00 0.00 0.00 58 1008.9
20260504223604 28 146 11.3 0.0 0.00 0.00 0.00 57 1008.9
20260504223002 28 98 9.7 0.0 0.00 0.00 0.00 58 1009.0
20260504222540 28 147 9.7 0.0 0.00 0.00 0.00 57 1009.1
20260504222009 27 182 11.3 0.0 0.00 0.00 0.00 59 1009.1
20260504221517 27 148 12.9 0.0 0.00 0.00 0.00 58 1009.1
20260504221056 27 145 12.9 0.0 0.00 0.00 0.00 58 1009.2
20260504220532 27 155 12.9 0.0 0.00 0.00 0.00 58 1009.2
20260504220040 27 115 12.9 0.0 0.00 0.00 0.00 59 1009.2
20260504215511 28 188 9.7 0.0 0.00 0.00 0.00 58 1009.3
20260504215051 27 150 9.7 0.0 0.00 0.00 0.00 59 1009.4
20260504214557 27 138 12.9 0.0 0.00 0.00 0.00 59 1009.4
20260504214029 27 112 12.9 0.0 0.00 0.00 0.00 58 1009.3
20260504213501 27 152 12.9 0.0 0.00 0.00 0.00 59 1009.4
20260504213102 27 191 11.3 0.0 0.00 0.00 0.00 58 1009.4
20260504212529 27 153 9.7 0.0 0.00 0.00 0.00 59 1009.7
20260504212008 27 132 11.3 0.0 0.00 0.00 0.00 59 1009.8
20260504211619 27 134 9.7 0.0 0.00 0.00 0.00 59 1009.9
20260504211034 27 132 9.7 0.0 0.00 0.00 0.00 58 1010.0
20260504210507 27 188 9.7 0.0 0.00 0.00 0.00 58 1010.3
20260504205539 27 140 12.9 0.0 0.00 0.00 0.00 59 1010.3
20260504205010 27 173 11.3 0.0 0.00 0.00 0.00 60 1010.5
20260504204514 27 163 11.3 0.0 0.00 0.00 0.00 59 1010.5
20260504204052 27 104 11.3 0.0 0.00 0.00 0.00 59 1010.7
20260504203529 27 146 11.3 0.0 0.00 0.00 0.00 59 1010.7
20260504203034 27 132 12.9 0.0 0.00 0.00 0.00 59 1010.7
20260504202511 27 183 9.7 0.0 0.00 0.00 0.00 58 1010.8
20260504202043 27 149 9.7 0.0 0.00 0.00 0.00 59 1011.0
20260504201549 27 141 9.7 0.0 0.00 0.00 0.00 59 1011.0
20260504201018 27 149 8.0 0.0 0.00 0.00 0.00 59 1011.1
20260504200553 27 138 8.0 0.0 0.00 0.00 0.00 59 1011.2
20260504200059 27 180 9.7 0.0 0.00 0.00 0.00 59 1011.4
20260504195535 26 138 9.7 0.0 0.00 0.00 0.00 59 1011.3
20260504195011 26 146 9.7 0.0 0.00 0.00 0.00 61 1011.5
20260504194515 26 194 9.7 0.0 0.00 0.00 0.00 60 1011.7
20260504194054 26 171 11.3 0.0 0.00 0.00 0.00 60 1011.8
20260504193526 26 143 9.7 0.0 0.00 0.00 0.00 60 1011.8
20260504193029 26 141 9.7 0.0 0.00 0.00 0.00 61 1011.7
20260504192504 26 205 9.7 0.0 0.00 0.00 0.00 61 1012.0
20260504192047 26 139 9.7 0.0 0.00 0.00 0.00 61 1012.0
20260504191541 26 163 9.7 0.0 0.00 0.00 0.00 60 1012.2
20260504191017 26 205 9.7 0.0 0.00 0.00 0.00 62 1012.2
20260504190556 26 215 9.7 0.0 0.00 0.00 0.00 62 1012.2
20260504190045 25 188 9.7 0.0 0.00 0.00 0.00 62 1012.3
20260504185519 25 186 9.7 0.0 0.00 0.00 0.00 62 1012.4
20260504185058 25 186 9.7 0.0 0.00 0.00 0.00 63 1012.4
20260504184547 25 184 11.3 0.0 0.00 0.00 0.00 64 1012.6
20260504184022 25 183 11.3 0.0 0.00 0.00 0.00 63 1012.5
20260504183559 25 130 9.7 0.0 0.00 0.00 0.00 63 1012.6
20260504183107 25 163 8.0 0.0 0.00 0.00 0.00 65 1012.6
20260504182532 25 186 8.0 0.0 0.00 0.00 0.00 64 1012.8
20260504182008 25 155 9.7 0.0 0.00 0.00 0.00 64 1012.9
20260504181600 25 213 9.7 0.0 0.00 0.00 0.00 64 1012.9
20260504181033 25 117 8.0 0.0 0.00 0.00 0.00 64 1013.1
20260504180513 24 139 9.7 0.0 0.00 0.00 0.00 66 1013.1
20260504180018 24 138 9.7 0.0 0.00 0.00 0.00 66 1013.2
20260504175557 24 178 6.4 0.0 0.00 0.00 0.00 65 1013.3
20260504175029 24 232 8.0 0.0 0.00 0.00 0.00 66 1013.3
20260504174530 24 143 6.4 0.0 0.00 0.00 0.00 66 1013.4
20260504174002 23 163 4.8 0.0 0.00 0.00 0.00 69 1013.5
20260504173541 23 184 6.4 0.0 0.00 0.00 0.00 69 1013.5
20260504173045 23 182 8.0 0.0 0.00 0.00 0.00 67 1013.6
20260504172518 23 213 8.0 0.0 0.00 0.00 0.00 67 1013.9
20260504172057 23 146 6.4 0.0 0.00 0.00 0.00 66 1013.9
20260504171602 23 266 4.8 0.0 0.00 0.00 0.00 69 1014.1
20260504171036 23 155 4.8 0.0 0.00 0.00 0.00 67 1014.2
20260504170510 23 199 4.8 0.0 0.00 0.00 0.00 68 1014.4
20260504151044 21 155 11.3 0.0 0.00 0.00 0.00 72 1014.8
20260504150523 21 186 9.7 0.0 0.00 0.00 0.00 72 1014.8
20260504141039 19 156 8.0 0.0 0.00 0.00 0.00 75 1015.0
20260504140514 19 139 8.0 0.0 0.00 0.00 0.00 76 1014.9
20260504130552 16 135 4.8 0.0 0.00 0.00 0.00 84 1015.0
20260504110506 16 144 4.8 0.0 0.00 0.00 0.00 82 1014.6